When you browse on this site, cookies collect data to enhance your experience and personalize the content and advertising you see.
Visit our Privacy Policy to learn more. By continuing to use the site, you agree to this use of cookies and data.
  • In Österreich
  • Länderverzeichnis
  • Für 7 Tage
  • Wassertemperatur
  • Wetterkarte
  • News
  • Widgets
  • user-avatar
    Anmelden

    Stündliche Wetter Orizatlán

    Heute, 25 August, Sonntag

    Zeit Temperatur Niederschläge Wind Luftdruck Luftfeuchtigkeit
    00:00 +26°C° 0 mm 1 m/S 743 mmHg 93%
    01:00 +24°C° 0 mm 0 m/S 742 mmHg 93%
    02:00 +24°C° 0 mm 0 m/S 742 mmHg 92%
    03:00 +24°C° 0 mm 0 m/S 742 mmHg 92%
    04:00 +25°C° 0 mm 1 m/S 742 mmHg 93%
    05:00 +25°C° 0 mm 1 m/S 742 mmHg 93%
    06:00 +27°C° 0 mm 1 m/S 743 mmHg 87%
    07:00 +27°C° 0 mm 0 m/S 743 mmHg 81%
    08:00 +29°C° 0 mm 0 m/S 743 mmHg 74%
    09:00 +32°C° 0 mm 1 m/S 743 mmHg 69%
    10:00 +33°C° 0 mm 1 m/S 742 mmHg 64%
    11:00 +35°C° 0 mm 2 m/S 742 mmHg 59%
    12:00 +36°C° 0 mm 2 m/S 741 mmHg 58%
    13:00 +36°C° 0 mm 2 m/S 740 mmHg 58%
    14:00 +37°C° 0 mm 2 m/S 740 mmHg 57%
    15:00 +35°C° 0.1 mm 1 m/S 740 mmHg 62%
    16:00 +34°C° 0.1 mm 1 m/S 740 mmHg 66%
    17:00 +33°C° 0.1 mm 1 m/S 740 mmHg 71%
    18:00 +32°C° 0.2 mm 1 m/S 740 mmHg 76%
    19:00 +30°C° 0.2 mm 1 m/S 741 mmHg 81%
    20:00 +29°C° 0.2 mm 1 m/S 741 mmHg 86%
    21:00 +28°C° 0.5 mm 1 m/S 741 mmHg 89%
    22:00 +28°C° 0.5 mm 1 m/S 741 mmHg 91%
    23:00 +27°C° 0.5 mm 1 m/S 741 mmHg 94%

    Morgen, 26 August, Montag

    Zeit Temperatur Niederschläge Wind Luftdruck Luftfeuchtigkeit
    00:00 +27°C° 0.4 mm 1 m/S 741 mmHg 94%
    01:00 +27°C° 0.4 mm 1 m/S 741 mmHg 94%
    02:00 +27°C° 0.4 mm 1 m/S 741 mmHg 94%
    03:00 +27°C° 0.9 mm 1 m/S 740 mmHg 95%
    04:00 +26°C° 0.9 mm 1 m/S 740 mmHg 95%
    05:00 +26°C° 0.9 mm 1 m/S 740 mmHg 95%
    06:00 +25°C° 0.1 mm 0 m/S 741 mmHg 91%
    07:00 +27°C° 0.1 mm 0 m/S 741 mmHg 87%
    08:00 +28°C° 0.1 mm 0 m/S 741 mmHg 83%
    09:00 +31°C° 0.1 mm 1 m/S 741 mmHg 77%
    10:00 +32°C° 0.1 mm 1 m/S 741 mmHg 72%
    11:00 +34°C° 0.1 mm 1 m/S 741 mmHg 66%
    12:00 +34°C° 0.1 mm 1 m/S 740 mmHg 65%
    13:00 +34°C° 0.1 mm 1 m/S 739 mmHg 64%
    14:00 +36°C° 0.1 mm 2 m/S 739 mmHg 63%
    15:00 +34°C° 0.2 mm 1 m/S 739 mmHg 67%
    16:00 +34°C° 0.2 mm 1 m/S 739 mmHg 71%
    17:00 +31°C° 0.2 mm 0 m/S 739 mmHg 75%
    18:00 +32°C° 0.4 mm 1 m/S 739 mmHg 80%
    19:00 +30°C° 0.4 mm 1 m/S 740 mmHg 84%
    20:00 +28°C° 0.4 mm 1 m/S 741 mmHg 89%
    21:00 +28°C° 0.6 mm 1 m/S 741 mmHg 90%
    22:00 +27°C° 0.6 mm 1 m/S 741 mmHg 92%
    23:00 +27°C° 0.6 mm 1 m/S 741 mmHg 93%

    übermorgen, 27 August, Dienstag

    Zeit Temperatur Niederschläge Wind Luftdruck Luftfeuchtigkeit
    00:00 +27°C° 0.1 mm 1 m/S 741 mmHg 94%
    01:00 +26°C° 0.1 mm 1 m/S 741 mmHg 94%
    02:00 +26°C° 0.1 mm 1 m/S 741 mmHg 95%
    03:00 +26°C° 0.1 mm 1 m/S 741 mmHg 95%
    04:00 +26°C° 0.1 mm 1 m/S 741 mmHg 95%
    05:00 +26°C° 0.1 mm 1 m/S 741 mmHg 95%
    06:00 +27°C° 0 mm 1 m/S 742 mmHg 91%
    07:00 +28°C° 0 mm 1 m/S 742 mmHg 87%
    08:00 +29°C° 0 mm 1 m/S 742 mmHg 83%
    09:00 +31°C° 0.1 mm 1 m/S 742 mmHg 78%
    10:00 +32°C° 0.1 mm 1 m/S 742 mmHg 73%
    11:00 +33°C° 0.1 mm 1 m/S 741 mmHg 69%
    12:00 +33°C° 0.1 mm 1 m/S 741 mmHg 66%
    13:00 +34°C° 0.1 mm 1 m/S 741 mmHg 64%
    14:00 +34°C° 0.1 mm 1 m/S 740 mmHg 62%
    15:00 +34°C° 0.2 mm 1 m/S 740 mmHg 66%
    16:00 +33°C° 0.2 mm 1 m/S 740 mmHg 69%
    17:00 +31°C° 0.2 mm 0 m/S 740 mmHg 72%
    18:00 +31°C° 0.8 mm 1 m/S 741 mmHg 78%
    19:00 +29°C° 0.8 mm 1 m/S 742 mmHg 84%
    20:00 +27°C° 0.8 mm 1 m/S 743 mmHg 91%
    21:00 +27°C° 0.4 mm 1 m/S 743 mmHg 91%
    22:00 +27°C° 0.4 mm 1 m/S 743 mmHg 92%
    23:00 +26°C° 0.4 mm 1 m/S 744 mmHg 93%

    28 August, Mittwoch

    Zeit Temperatur Niederschläge Wind Luftdruck Luftfeuchtigkeit
    00:00 +26°C° 0.4 mm 1 m/S 743 mmHg 94%
    01:00 +26°C° 0.4 mm 1 m/S 743 mmHg 94%
    02:00 +25°C° 0.4 mm 1 m/S 743 mmHg 94%
    03:00 +25°C° 0.2 mm 1 m/S 743 mmHg 94%
    04:00 +23°C° 0.2 mm 0 m/S 744 mmHg 95%
    05:00 +23°C° 0.2 mm 0 m/S 744 mmHg 95%
    06:00 +24°C° 0 mm 0 m/S 744 mmHg 91%
    07:00 +28°C° 0 mm 1 m/S 745 mmHg 88%
    08:00 +29°C° 0 mm 1 m/S 745 mmHg 85%
    09:00 +31°C° 0 mm 1 m/S 745 mmHg 76%
    10:00 +32°C° 0 mm 1 m/S 744 mmHg 68%
    11:00 +34°C° 0 mm 1 m/S 744 mmHg 60%
    12:00 +34°C° 0.2 mm 1 m/S 744 mmHg 61%
    13:00 +34°C° 0.2 mm 1 m/S 743 mmHg 61%
    14:00 +35°C° 0.2 mm 2 m/S 742 mmHg 62%
    15:00 +33°C° 1.1 mm 1 m/S 743 mmHg 69%
    16:00 +32°C° 1.1 mm 1 m/S 743 mmHg 75%
    17:00 +31°C° 1.1 mm 1 m/S 743 mmHg 82%
    18:00 +29°C° 0.1 mm 1 m/S 743 mmHg 84%
    19:00 +28°C° 0.1 mm 1 m/S 744 mmHg 86%
    20:00 +26°C° 0.1 mm 1 m/S 745 mmHg 88%
    21:00 +26°C° 0.4 mm 1 m/S 745 mmHg 90%
    22:00 +26°C° 0.4 mm 1 m/S 745 mmHg 91%
    23:00 +25°C° 0.4 mm 1 m/S 745 mmHg 92%

    29 August, Donnerstag

    Zeit Temperatur Niederschläge Wind Luftdruck Luftfeuchtigkeit
    00:00 +25°C° 0 mm 1 m/S 745 mmHg 92%
    01:00 +25°C° 0 mm 1 m/S 744 mmHg 92%
    02:00 +24°C° 0 mm 1 m/S 744 mmHg 92%
    03:00 +24°C° 0 mm 1 m/S 744 mmHg 93%
    04:00 +24°C° 0 mm 1 m/S 744 mmHg 93%
    05:00 +24°C° 0 mm 1 m/S 745 mmHg 94%
    06:00 +25°C° 0 mm 1 m/S 745 mmHg 88%
    07:00 +25°C° 0 mm 0 m/S 745 mmHg 83%
    08:00 +27°C° 0 mm 0 m/S 746 mmHg 77%
    09:00 +31°C° 0 mm 1 m/S 745 mmHg 71%
    10:00 +32°C° 0 mm 1 m/S 745 mmHg 65%
    11:00 +33°C° 0 mm 1 m/S 745 mmHg 59%
    12:00 +34°C° 0 mm 1 m/S 744 mmHg 56%
    13:00 +34°C° 0 mm 1 m/S 743 mmHg 53%
    14:00 +36°C° 0 mm 2 m/S 743 mmHg 50%
    15:00 +34°C° 0 mm 1 m/S 743 mmHg 55%
    16:00 +33°C° 0 mm 1 m/S 743 mmHg 59%
    17:00 +32°C° 0 mm 1 m/S 743 mmHg 64%
    18:00 +30°C° 0.1 mm 1 m/S 744 mmHg 70%
    19:00 +29°C° 0.1 mm 1 m/S 744 mmHg 76%
    20:00 +27°C° 0.1 mm 1 m/S 745 mmHg 82%
    21:00 +26°C° 0 mm 1 m/S 745 mmHg 83%
    22:00 +26°C° 0 mm 1 m/S 745 mmHg 84%
    23:00 +25°C° 0 mm 1 m/S 745 mmHg 86%

    30 August, Freitag

    Zeit Temperatur Niederschläge Wind Luftdruck Luftfeuchtigkeit
    00:00 +25°C° 0 mm 1 m/S 745 mmHg 86%
    01:00 +25°C° 0 mm 1 m/S 744 mmHg 86%
    02:00 +25°C° 0 mm 1 m/S 744 mmHg 86%
    03:00 +24°C° 0 mm 1 m/S 744 mmHg 86%
    04:00 +24°C° 0 mm 1 m/S 744 mmHg 86%
    05:00 +24°C° 0 mm 1 m/S 744 mmHg 87%
    06:00 +26°C° 0 mm 1 m/S 744 mmHg 81%
    07:00 +26°C° 0 mm 0 m/S 745 mmHg 75%
    08:00 +28°C° 0 mm 0 m/S 745 mmHg 69%
    09:00 +31°C° 0 mm 1 m/S 744 mmHg 65%
    10:00 +32°C° 0 mm 1 m/S 744 mmHg 60%
    11:00 +35°C° 0 mm 2 m/S 743 mmHg 56%
    12:00 +35°C° 0 mm 2 m/S 743 mmHg 53%
    13:00 +36°C° 0 mm 2 m/S 742 mmHg 51%
    14:00 +36°C° 0 mm 2 m/S 741 mmHg 48%
    15:00 +35°C° 0 mm 2 m/S 742 mmHg 54%
    16:00 +33°C° 0 mm 1 m/S 742 mmHg 59%
    17:00 +32°C° 0 mm 1 m/S 742 mmHg 65%
    18:00 +30°C° 0 mm 1 m/S 743 mmHg 70%
    19:00 +28°C° 0 mm 1 m/S 743 mmHg 75%
    20:00 +27°C° 0 mm 2 m/S 744 mmHg 80%
    21:00 +26°C° 0 mm 2 m/S 744 mmHg 81%
    22:00 +26°C° 0 mm 1 m/S 744 mmHg 83%
    23:00 +25°C° 0 mm 1 m/S 744 mmHg 85%
    Mehr zeigen